owner,sensor,date,latitude,longitude,sea_surface_height_above_sea_level,qcFlag 
COMPS,ioos:station:USF.COMPS:SHP:1,2011-11-01T02:00:00Z,30.0600,-84.2910,1.124,1111122 
COMPS,ioos:station:USF.COMPS:SHP:1,2011-11-01T02:06:00Z,30.0600,-84.2910,1.124,1111122 
COMPS,ioos:station:USF.COMPS:SHP:1,2011-11-01T02:12:00Z,30.0600,-84.2910,1.124,1111122 
COMPS,ioos:station:USF.COMPS:SHP:1,2011-11-01T02:18:00Z,30.0600,-84.2910,1.124,1111122 
COMPS,ioos:station:USF.COMPS:SHP:1,2011-11-01T02:24:00Z,30.0600,-84.2910,1.124,1111122 
COMPS,ioos:station:USF.COMPS:SHP:1,2011-11-01T02:30:00Z,30.0600,-84.2910,1.124,1111122 
COMPS,ioos:station:USF.COMPS:SHP:1,2011-11-01T02:36:00Z,30.0600,-84.2910,1.124,1111122 
COMPS,ioos:station:USF.COMPS:SHP:1,2011-11-01T02:42:00Z,30.0600,-84.2910,1.125,1111122 
COMPS,ioos:station:USF.COMPS:SHP:1,2011-11-01T02:48:00Z,30.0600,-84.2910,1.124,1111122 
COMPS,ioos:station:USF.COMPS:SHP:1,2011-11-01T02:54:00Z,30.0600,-84.2910,1.124,1111122 
COMPS,ioos:station:USF.COMPS:SHP:1,2011-11-01T05:00:00Z,30.0600,-84.2910,1.125,1111122 
COMPS,ioos:station:USF.COMPS:SHP:1,2011-11-01T05:06:00Z,30.0600,-84.2910,1.125,1111122 
COMPS,ioos:station:USF.COMPS:SHP:1,2011-11-01T05:12:00Z,30.0600,-84.2910,1.125,1111122 
COMPS,ioos:station:USF.COMPS:SHP:1,2011-11-01T05:18:00Z,30.0600,-84.2910,1.125,1111122 
COMPS,ioos:station:USF.COMPS:SHP:1,2011-11-01T05:24:00Z,30.0600,-84.2910,1.125,1111122 
COMPS,ioos:station:USF.COMPS:SHP:1,2011-11-01T05:30:00Z,30.0600,-84.2910,1.125,1111122 
COMPS,ioos:station:USF.COMPS:SHP:1,2011-11-01T05:36:00Z,30.0600,-84.2910,1.125,1111122 
COMPS,ioos:station:USF.COMPS:SHP:1,2011-11-01T05:42:00Z,30.0600,-84.2910,1.125,1111122 
COMPS,ioos:station:USF.COMPS:SHP:1,2011-11-01T05:48:00Z,30.0600,-84.2910,1.125,1111122 
COMPS,ioos:station:USF.COMPS:SHP:1,2011-11-01T05:54:00Z,30.0600,-84.2910,1.125,1111122 
COMPS,ioos:station:USF.COMPS:SHP:1,2011-11-01T08:00:00Z,30.0600,-84.2910,1.126,1111122 
COMPS,ioos:station:USF.COMPS:SHP:1,2011-11-01T08:06:00Z,30.0600,-84.2910,1.126,1111122 
COMPS,ioos:station:USF.COMPS:SHP:1,2011-11-01T08:12:00Z,30.0600,-84.2910,1.126,1111122 
COMPS,ioos:station:USF.COMPS:SHP:1,2011-11-01T08:18:00Z,30.0600,-84.2910,1.126,1111122 
COMPS,ioos:station:USF.COMPS:SHP:1,2011-11-01T08:24:00Z,30.0600,-84.2910,1.126,1111122 
COMPS,ioos:station:USF.COMPS:SHP:1,2011-11-01T08:30:00Z,30.0600,-84.2910,1.126,1111122 
COMPS,ioos:station:USF.COMPS:SHP:1,2011-11-01T08:36:00Z,30.0600,-84.2910,1.126,1111122 
COMPS,ioos:station:USF.COMPS:SHP:1,2011-11-01T08:42:00Z,30.0600,-84.2910,1.126,1111122 
COMPS,ioos:station:USF.COMPS:SHP:1,2011-11-01T08:48:00Z,30.0600,-84.2910,1.126,1111122 
COMPS,ioos:station:USF.COMPS:SHP:1,2011-11-01T08:54:00Z,30.0600,-84.2910,1.126,1111122 
COMPS,ioos:station:USF.COMPS:SHP:1,2011-11-01T13:00:00Z,30.0600,-84.2910,1.125,1111122 
COMPS,ioos:station:USF.COMPS:SHP:1,2011-11-01T13:06:00Z,30.0600,-84.2910,1.125,1111122 
COMPS,ioos:station:USF.COMPS:SHP:1,2011-11-01T13:12:00Z,30.0600,-84.2910,1.125,1111122 
COMPS,ioos:station:USF.COMPS:SHP:1,2011-11-01T13:18:00Z,30.0600,-84.2910,1.125,1111122 
COMPS,ioos:station:USF.COMPS:SHP:1,2011-11-01T13:24:00Z,30.0600,-84.2910,1.124,1111122 
COMPS,ioos:station:USF.COMPS:SHP:1,2011-11-01T13:30:00Z,30.0600,-84.2910,1.124,1111122 
COMPS,ioos:station:USF.COMPS:SHP:1,2011-11-01T13:36:00Z,30.0600,-84.2910,1.123,1111122 
COMPS,ioos:station:USF.COMPS:SHP:1,2011-11-01T13:42:00Z,30.0600,-84.2910,1.122,1111122 
COMPS,ioos:station:USF.COMPS:SHP:1,2011-11-01T13:48:00Z,30.0600,-84.2910,1.121,1111122 
COMPS,ioos:station:USF.COMPS:SHP:1,2011-11-01T13:54:00Z,30.0600,-84.2910,1.121,1111122 
COMPS,ioos:station:USF.COMPS:SHP:1,2011-11-01T14:00:00Z,30.0600,-84.2910,1.12,1111122 
COMPS,ioos:station:USF.COMPS:SHP:1,2011-11-01T14:06:00Z,30.0600,-84.2910,1.119,1111122 
COMPS,ioos:station:USF.COMPS:SHP:1,2011-11-01T14:12:00Z,30.0600,-84.2910,1.119,1111122 
COMPS,ioos:station:USF.COMPS:SHP:1,2011-11-01T14:18:00Z,30.0600,-84.2910,1.118,1111122 
COMPS,ioos:station:USF.COMPS:SHP:1,2011-11-01T14:24:00Z,30.0600,-84.2910,1.118,1111122 
COMPS,ioos:station:USF.COMPS:SHP:1,2011-11-01T14:30:00Z,30.0600,-84.2910,1.117,1111122 
COMPS,ioos:station:USF.COMPS:SHP:1,2011-11-01T14:36:00Z,30.0600,-84.2910,1.117,1111122 
COMPS,ioos:station:USF.COMPS:SHP:1,2011-11-01T14:42:00Z,30.0600,-84.2910,1.116,1111122 
COMPS,ioos:station:USF.COMPS:SHP:1,2011-11-01T14:48:00Z,30.0600,-84.2910,1.116,1111122 
COMPS,ioos:station:USF.COMPS:SHP:1,2011-11-01T14:54:00Z,30.0600,-84.2910,1.116,1111122 
COMPS,ioos:station:USF.COMPS:SHP:1,2011-11-01T15:00:00Z,30.0600,-84.2910,1.116,1111122 
COMPS,ioos:station:USF.COMPS:SHP:1,2011-11-01T15:06:00Z,30.0600,-84.2910,1.116,1111122 
COMPS,ioos:station:USF.COMPS:SHP:1,2011-11-01T15:12:00Z,30.0600,-84.2910,1.116,1111122 
COMPS,ioos:station:USF.COMPS:SHP:1,2011-11-01T15:18:00Z,30.0600,-84.2910,1.116,1111122 
COMPS,ioos:station:USF.COMPS:SHP:1,2011-11-01T15:24:00Z,30.0600,-84.2910,1.116,1111122 
COMPS,ioos:station:USF.COMPS:SHP:1,2011-11-01T15:30:00Z,30.0600,-84.2910,1.116,1111122 
COMPS,ioos:station:USF.COMPS:SHP:1,2011-11-01T15:36:00Z,30.0600,-84.2910,1.116,1111122 
COMPS,ioos:station:USF.COMPS:SHP:1,2011-11-01T15:42:00Z,30.0600,-84.2910,1.116,1111122 
COMPS,ioos:station:USF.COMPS:SHP:1,2011-11-01T15:48:00Z,30.0600,-84.2910,1.116,1111122 
COMPS,ioos:station:USF.COMPS:SHP:1,2011-11-01T15:54:00Z,30.0600,-84.2910,1.116,1111122 
COMPS,ioos:station:USF.COMPS:SHP:1,2011-11-01T16:00:00Z,30.0600,-84.2910,1.116,1111122 
COMPS,ioos:station:USF.COMPS:SHP:1,2011-11-01T16:06:00Z,30.0600,-84.2910,1.117,1111122 
COMPS,ioos:station:USF.COMPS:SHP:1,2011-11-01T16:12:00Z,30.0600,-84.2910,1.117,1111122 
COMPS,ioos:station:USF.COMPS:SHP:1,2011-11-01T16:18:00Z,30.0600,-84.2910,1.117,1111122 
COMPS,ioos:station:USF.COMPS:SHP:1,2011-11-01T16:24:00Z,30.0600,-84.2910,1.117,1111122 
COMPS,ioos:station:USF.COMPS:SHP:1,2011-11-01T16:30:00Z,30.0600,-84.2910,1.118,1111122 
COMPS,ioos:station:USF.COMPS:SHP:1,2011-11-01T16:36:00Z,30.0600,-84.2910,1.118,1111122 
COMPS,ioos:station:USF.COMPS:SHP:1,2011-11-01T16:42:00Z,30.0600,-84.2910,1.119,1111122 
COMPS,ioos:station:USF.COMPS:SHP:1,2011-11-01T16:48:00Z,30.0600,-84.2910,1.118,1111122 
COMPS,ioos:station:USF.COMPS:SHP:1,2011-11-01T16:54:00Z,30.0600,-84.2910,1.118,1111122 
COMPS,ioos:station:USF.COMPS:SHP:1,2011-11-01T17:00:00Z,30.0600,-84.2910,1.118,1111122 
COMPS,ioos:station:USF.COMPS:SHP:1,2011-11-01T17:06:00Z,30.0600,-84.2910,1.118,1111122 
COMPS,ioos:station:USF.COMPS:SHP:1,2011-11-01T17:12:00Z,30.0600,-84.2910,1.118,1111122 
COMPS,ioos:station:USF.COMPS:SHP:1,2011-11-01T17:18:00Z,30.0600,-84.2910,1.118,1111122 
COMPS,ioos:station:USF.COMPS:SHP:1,2011-11-01T17:24:00Z,30.0600,-84.2910,1.117,1111122 
COMPS,ioos:station:USF.COMPS:SHP:1,2011-11-01T17:30:00Z,30.0600,-84.2910,1.117,1111122 
COMPS,ioos:station:USF.COMPS:SHP:1,2011-11-01T17:36:00Z,30.0600,-84.2910,1.117,1111122 
COMPS,ioos:station:USF.COMPS:SHP:1,2011-11-01T17:42:00Z,30.0600,-84.2910,1.118,1111122 
COMPS,ioos:station:USF.COMPS:SHP:1,2011-11-01T17:48:00Z,30.0600,-84.2910,1.118,1111122 
COMPS,ioos:station:USF.COMPS:SHP:1,2011-11-01T17:54:00Z,30.0600,-84.2910,1.118,1111122 
COMPS,ioos:station:USF.COMPS:SHP:1,2011-11-01T18:00:00Z,30.0600,-84.2910,1.118,1111122 
COMPS,ioos:station:USF.COMPS:SHP:1,2011-11-01T18:06:00Z,30.0600,-84.2910,1.118,1111122 
COMPS,ioos:station:USF.COMPS:SHP:1,2011-11-01T18:12:00Z,30.0600,-84.2910,1.118,1111122 
COMPS,ioos:station:USF.COMPS:SHP:1,2011-11-01T18:18:00Z,30.0600,-84.2910,1.118,1111122 
COMPS,ioos:station:USF.COMPS:SHP:1,2011-11-01T18:24:00Z,30.0600,-84.2910,1.118,1111122 
COMPS,ioos:station:USF.COMPS:SHP:1,2011-11-01T18:30:00Z,30.0600,-84.2910,1.118,1111122 
COMPS,ioos:station:USF.COMPS:SHP:1,2011-11-01T18:36:00Z,30.0600,-84.2910,1.118,1111122 
COMPS,ioos:station:USF.COMPS:SHP:1,2011-11-01T18:42:00Z,30.0600,-84.2910,1.118,1111122 
COMPS,ioos:station:USF.COMPS:SHP:1,2011-11-01T18:48:00Z,30.0600,-84.2910,1.117,1111122 
COMPS,ioos:station:USF.COMPS:SHP:1,2011-11-01T18:54:00Z,30.0600,-84.2910,1.118,1111122 
COMPS,ioos:station:USF.COMPS:SHP:1,2011-11-01T19:00:00Z,30.0600,-84.2910,1.118,1111122 
COMPS,ioos:station:USF.COMPS:SHP:1,2011-11-01T19:06:00Z,30.0600,-84.2910,1.117,1111122 
COMPS,ioos:station:USF.COMPS:SHP:1,2011-11-01T19:12:00Z,30.0600,-84.2910,1.118,1111122 
COMPS,ioos:station:USF.COMPS:SHP:1,2011-11-01T19:18:00Z,30.0600,-84.2910,1.118,1111122 
COMPS,ioos:station:USF.COMPS:SHP:1,2011-11-01T19:24:00Z,30.0600,-84.2910,1.119,1111122 
COMPS,ioos:station:USF.COMPS:SHP:1,2011-11-01T19:30:00Z,30.0600,-84.2910,1.12,1111122 
COMPS,ioos:station:USF.COMPS:SHP:1,2011-11-01T19:36:00Z,30.0600,-84.2910,1.121,1111122 
COMPS,ioos:station:USF.COMPS:SHP:1,2011-11-01T19:42:00Z,30.0600,-84.2910,1.122,1111122 
COMPS,ioos:station:USF.COMPS:SHP:1,2011-11-01T19:48:00Z,30.0600,-84.2910,1.122,1111122 
COMPS,ioos:station:USF.COMPS:SHP:1,2011-11-01T19:54:00Z,30.0600,-84.2910,1.123,1111122 
COMPS,ioos:station:USF.COMPS:SHP:1,2011-11-01T20:00:00Z,30.0600,-84.2910,1.123,1111122 
COMPS,ioos:station:USF.COMPS:SHP:1,2011-11-01T20:06:00Z,30.0600,-84.2910,1.123,1111122 
COMPS,ioos:station:USF.COMPS:SHP:1,2011-11-01T20:12:00Z,30.0600,-84.2910,1.123,1111122 
COMPS,ioos:station:USF.COMPS:SHP:1,2011-11-01T20:18:00Z,30.0600,-84.2910,1.123,1111122 
COMPS,ioos:station:USF.COMPS:SHP:1,2011-11-01T20:24:00Z,30.0600,-84.2910,1.124,1111122 
COMPS,ioos:station:USF.COMPS:SHP:1,2011-11-01T20:30:00Z,30.0600,-84.2910,1.124,1111122 
COMPS,ioos:station:USF.COMPS:SHP:1,2011-11-01T20:36:00Z,30.0600,-84.2910,1.124,1111122 
COMPS,ioos:station:USF.COMPS:SHP:1,2011-11-01T20:42:00Z,30.0600,-84.2910,1.124,1111122 
COMPS,ioos:station:USF.COMPS:SHP:1,2011-11-01T20:48:00Z,30.0600,-84.2910,1.123,1111122 
COMPS,ioos:station:USF.COMPS:SHP:1,2011-11-01T20:54:00Z,30.0600,-84.2910,1.123,1111122 
COMPS,ioos:station:USF.COMPS:SHP:1,2011-11-01T21:00:00Z,30.0600,-84.2910,1.124,1111122 
COMPS,ioos:station:USF.COMPS:SHP:1,2011-11-01T21:06:00Z,30.0600,-84.2910,1.124,1111122 
COMPS,ioos:station:USF.COMPS:SHP:1,2011-11-01T21:12:00Z,30.0600,-84.2910,1.124,1111122 
COMPS,ioos:station:USF.COMPS:SHP:1,2011-11-01T21:18:00Z,30.0600,-84.2910,1.124,1111122 
COMPS,ioos:station:USF.COMPS:SHP:1,2011-11-01T21:24:00Z,30.0600,-84.2910,1.125,1111122 
COMPS,ioos:station:USF.COMPS:SHP:1,2011-11-01T21:30:00Z,30.0600,-84.2910,1.124,1111122 
COMPS,ioos:station:USF.COMPS:SHP:1,2011-11-01T21:36:00Z,30.0600,-84.2910,1.124,1111122 
COMPS,ioos:station:USF.COMPS:SHP:1,2011-11-01T21:42:00Z,30.0600,-84.2910,1.124,1111122 
COMPS,ioos:station:USF.COMPS:SHP:1,2011-11-01T21:48:00Z,30.0600,-84.2910,1.124,1111122 
COMPS,ioos:station:USF.COMPS:SHP:1,2011-11-01T21:54:00Z,30.0600,-84.2910,1.124,1111122 
COMPS,ioos:station:USF.COMPS:SHP:1,2011-11-01T22:00:00Z,30.0600,-84.2910,1.124,1111122 
COMPS,ioos:station:USF.COMPS:SHP:1,2011-11-01T22:06:00Z,30.0600,-84.2910,1.124,1111122 
COMPS,ioos:station:USF.COMPS:SHP:1,2011-11-01T22:12:00Z,30.0600,-84.2910,1.124,1111122 
COMPS,ioos:station:USF.COMPS:SHP:1,2011-11-01T22:18:00Z,30.0600,-84.2910,1.124,1111122 
COMPS,ioos:station:USF.COMPS:SHP:1,2011-11-01T22:24:00Z,30.0600,-84.2910,1.124,1111122 
COMPS,ioos:station:USF.COMPS:SHP:1,2011-11-01T22:30:00Z,30.0600,-84.2910,1.123,1111122 
COMPS,ioos:station:USF.COMPS:SHP:1,2011-11-01T22:36:00Z,30.0600,-84.2910,1.123,1111122 
COMPS,ioos:station:USF.COMPS:SHP:1,2011-11-01T22:42:00Z,30.0600,-84.2910,1.122,1111122 
COMPS,ioos:station:USF.COMPS:SHP:1,2011-11-01T22:48:00Z,30.0600,-84.2910,1.122,1111122 
COMPS,ioos:station:USF.COMPS:SHP:1,2011-11-01T22:54:00Z,30.0600,-84.2910,1.121,1111122 
COMPS,ioos:station:USF.COMPS:SHP:1,2011-11-01T23:00:00Z,30.0600,-84.2910,1.121,1111122 
COMPS,ioos:station:USF.COMPS:SHP:1,2011-11-01T23:06:00Z,30.0600,-84.2910,1.121,1111122 
COMPS,ioos:station:USF.COMPS:SHP:1,2011-11-01T23:12:00Z,30.0600,-84.2910,1.122,1111122 
COMPS,ioos:station:USF.COMPS:SHP:1,2011-11-01T23:18:00Z,30.0600,-84.2910,1.122,1111122 
COMPS,ioos:station:USF.COMPS:SHP:1,2011-11-01T23:24:00Z,30.0600,-84.2910,1.122,1111122 
COMPS,ioos:station:USF.COMPS:SHP:1,2011-11-01T23:30:00Z,30.0600,-84.2910,1.122,1111122 
COMPS,ioos:station:USF.COMPS:SHP:1,2011-11-01T23:36:00Z,30.0600,-84.2910,1.123,1111122 
COMPS,ioos:station:USF.COMPS:SHP:1,2011-11-01T23:42:00Z,30.0600,-84.2910,1.123,1111122 
COMPS,ioos:station:USF.COMPS:SHP:1,2011-11-01T23:48:00Z,30.0600,-84.2910,1.123,1111122 
COMPS,ioos:station:USF.COMPS:SHP:1,2011-11-01T23:54:00Z,30.0600,-84.2910,1.123,1111122 
COMPS,ioos:station:USF.COMPS:SHP:1,2011-11-02T03:00:00Z,30.0600,-84.2910,1.126,1111122 
COMPS,ioos:station:USF.COMPS:SHP:1,2011-11-02T03:06:00Z,30.0600,-84.2910,1.126,1111122 
COMPS,ioos:station:USF.COMPS:SHP:1,2011-11-02T03:12:00Z,30.0600,-84.2910,1.126,1111122 
COMPS,ioos:station:USF.COMPS:SHP:1,2011-11-02T03:18:00Z,30.0600,-84.2910,1.126,1111122 
COMPS,ioos:station:USF.COMPS:SHP:1,2011-11-02T03:24:00Z,30.0600,-84.2910,1.126,1111122 
COMPS,ioos:station:USF.COMPS:SHP:1,2011-11-02T03:30:00Z,30.0600,-84.2910,1.126,1111122 
COMPS,ioos:station:USF.COMPS:SHP:1,2011-11-02T03:36:00Z,30.0600,-84.2910,1.126,1111122 
COMPS,ioos:station:USF.COMPS:SHP:1,2011-11-02T03:42:00Z,30.0600,-84.2910,1.126,1111122 
COMPS,ioos:station:USF.COMPS:SHP:1,2011-11-02T03:48:00Z,30.0600,-84.2910,1.126,1111122 
COMPS,ioos:station:USF.COMPS:SHP:1,2011-11-02T03:54:00Z,30.0600,-84.2910,1.126,1111122 
COMPS,ioos:station:USF.COMPS:SHP:1,2011-11-02T05:00:00Z,30.0600,-84.2910,1.126,1111122 
COMPS,ioos:station:USF.COMPS:SHP:1,2011-11-02T05:06:00Z,30.0600,-84.2910,1.126,1111122 
COMPS,ioos:station:USF.COMPS:SHP:1,2011-11-02T05:12:00Z,30.0600,-84.2910,1.126,1111122 
COMPS,ioos:station:USF.COMPS:SHP:1,2011-11-02T05:18:00Z,30.0600,-84.2910,1.126,1111122 
COMPS,ioos:station:USF.COMPS:SHP:1,2011-11-02T05:24:00Z,30.0600,-84.2910,1.126,1111122 
COMPS,ioos:station:USF.COMPS:SHP:1,2011-11-02T05:30:00Z,30.0600,-84.2910,1.126,1111122 
COMPS,ioos:station:USF.COMPS:SHP:1,2011-11-02T05:36:00Z,30.0600,-84.2910,1.126,1111122 
COMPS,ioos:station:USF.COMPS:SHP:1,2011-11-02T05:42:00Z,30.0600,-84.2910,1.126,1111122 
COMPS,ioos:station:USF.COMPS:SHP:1,2011-11-02T05:48:00Z,30.0600,-84.2910,1.126,1111122 
COMPS,ioos:station:USF.COMPS:SHP:1,2011-11-02T05:54:00Z,30.0600,-84.2910,1.126,1111122 
COMPS,ioos:station:USF.COMPS:SHP:1,2011-11-02T08:00:00Z,30.0600,-84.2910,1.127,1111122 
COMPS,ioos:station:USF.COMPS:SHP:1,2011-11-02T08:06:00Z,30.0600,-84.2910,1.127,1111122 
COMPS,ioos:station:USF.COMPS:SHP:1,2011-11-02T08:12:00Z,30.0600,-84.2910,1.127,1111122 
COMPS,ioos:station:USF.COMPS:SHP:1,2011-11-02T08:18:00Z,30.0600,-84.2910,1.127,1111122 
COMPS,ioos:station:USF.COMPS:SHP:1,2011-11-02T08:24:00Z,30.0600,-84.2910,1.127,1111122 
COMPS,ioos:station:USF.COMPS:SHP:1,2011-11-02T08:30:00Z,30.0600,-84.2910,1.127,1111122 
COMPS,ioos:station:USF.COMPS:SHP:1,2011-11-02T08:36:00Z,30.0600,-84.2910,1.127,1111122 
COMPS,ioos:station:USF.COMPS:SHP:1,2011-11-02T08:42:00Z,30.0600,-84.2910,1.127,1111122 
COMPS,ioos:station:USF.COMPS:SHP:1,2011-11-02T08:48:00Z,30.0600,-84.2910,1.127,1111122 
COMPS,ioos:station:USF.COMPS:SHP:1,2011-11-02T08:54:00Z,30.0600,-84.2910,1.127,1111122 
COMPS,ioos:station:USF.COMPS:SHP:1,2011-11-02T11:00:00Z,30.0600,-84.2910,1.127,1111122 
COMPS,ioos:station:USF.COMPS:SHP:1,2011-11-02T11:06:00Z,30.0600,-84.2910,1.127,1111122 
COMPS,ioos:station:USF.COMPS:SHP:1,2011-11-02T11:12:00Z,30.0600,-84.2910,1.127,1111122 
COMPS,ioos:station:USF.COMPS:SHP:1,2011-11-02T11:18:00Z,30.0600,-84.2910,1.127,1111122 
COMPS,ioos:station:USF.COMPS:SHP:1,2011-11-02T11:24:00Z,30.0600,-84.2910,1.127,1111122 
COMPS,ioos:station:USF.COMPS:SHP:1,2011-11-02T11:30:00Z,30.0600,-84.2910,1.127,1111122 
COMPS,ioos:station:USF.COMPS:SHP:1,2011-11-02T11:36:00Z,30.0600,-84.2910,1.127,1111122 
COMPS,ioos:station:USF.COMPS:SHP:1,2011-11-02T11:42:00Z,30.0600,-84.2910,1.127,1111122 
COMPS,ioos:station:USF.COMPS:SHP:1,2011-11-02T11:48:00Z,30.0600,-84.2910,1.127,1111122 
COMPS,ioos:station:USF.COMPS:SHP:1,2011-11-02T11:54:00Z,30.0600,-84.2910,1.127,1111122 
COMPS,ioos:station:USF.COMPS:SHP:1,2011-11-02T12:00:00Z,30.0600,-84.2910,1.127,1111122 
COMPS,ioos:station:USF.COMPS:SHP:1,2011-11-02T12:06:00Z,30.0600,-84.2910,1.127,1111122 
COMPS,ioos:station:USF.COMPS:SHP:1,2011-11-02T12:12:00Z,30.0600,-84.2910,1.127,1111122 
COMPS,ioos:station:USF.COMPS:SHP:1,2011-11-02T12:18:00Z,30.0600,-84.2910,1.127,1111122 
COMPS,ioos:station:USF.COMPS:SHP:1,2011-11-02T12:24:00Z,30.0600,-84.2910,1.126,1111122 
COMPS,ioos:station:USF.COMPS:SHP:1,2011-11-02T12:30:00Z,30.0600,-84.2910,1.126,1111122 
COMPS,ioos:station:USF.COMPS:SHP:1,2011-11-02T12:36:00Z,30.0600,-84.2910,1.126,1111122 
COMPS,ioos:station:USF.COMPS:SHP:1,2011-11-02T12:42:00Z,30.0600,-84.2910,1.126,1111122 
COMPS,ioos:station:USF.COMPS:SHP:1,2011-11-02T12:48:00Z,30.0600,-84.2910,1.126,1111122 
COMPS,ioos:station:USF.COMPS:SHP:1,2011-11-02T12:54:00Z,30.0600,-84.2910,1.125,1111122 
COMPS,ioos:station:USF.COMPS:SHP:1,2011-11-02T13:00:00Z,30.0600,-84.2910,1.125,1111122 
COMPS,ioos:station:USF.COMPS:SHP:1,2011-11-02T13:06:00Z,30.0600,-84.2910,1.125,1111122 
COMPS,ioos:station:USF.COMPS:SHP:1,2011-11-02T13:12:00Z,30.0600,-84.2910,1.125,1111122 
COMPS,ioos:station:USF.COMPS:SHP:1,2011-11-02T13:18:00Z,30.0600,-84.2910,1.125,1111122 
COMPS,ioos:station:USF.COMPS:SHP:1,2011-11-02T13:24:00Z,30.0600,-84.2910,1.125,1111122 
COMPS,ioos:station:USF.COMPS:SHP:1,2011-11-02T13:30:00Z,30.0600,-84.2910,1.124,1111122 
COMPS,ioos:station:USF.COMPS:SHP:1,2011-11-02T13:36:00Z,30.0600,-84.2910,1.123,1111122 
COMPS,ioos:station:USF.COMPS:SHP:1,2011-11-02T13:42:00Z,30.0600,-84.2910,1.123,1111122 
COMPS,ioos:station:USF.COMPS:SHP:1,2011-11-02T13:48:00Z,30.0600,-84.2910,1.122,1111122 
COMPS,ioos:station:USF.COMPS:SHP:1,2011-11-02T13:54:00Z,30.0600,-84.2910,1.122,1111122 
COMPS,ioos:station:USF.COMPS:SHP:1,2011-11-02T14:00:00Z,30.0600,-84.2910,1.121,1111122 
COMPS,ioos:station:USF.COMPS:SHP:1,2011-11-02T14:06:00Z,30.0600,-84.2910,1.12,1111122 
COMPS,ioos:station:USF.COMPS:SHP:1,2011-11-02T14:12:00Z,30.0600,-84.2910,1.12,1111122 
COMPS,ioos:station:USF.COMPS:SHP:1,2011-11-02T14:18:00Z,30.0600,-84.2910,1.119,1111122 
COMPS,ioos:station:USF.COMPS:SHP:1,2011-11-02T14:24:00Z,30.0600,-84.2910,1.119,1111122 
COMPS,ioos:station:USF.COMPS:SHP:1,2011-11-02T14:30:00Z,30.0600,-84.2910,1.118,1111122 
COMPS,ioos:station:USF.COMPS:SHP:1,2011-11-02T14:36:00Z,30.0600,-84.2910,1.118,1111122 
COMPS,ioos:station:USF.COMPS:SHP:1,2011-11-02T14:42:00Z,30.0600,-84.2910,1.118,1111122 
COMPS,ioos:station:USF.COMPS:SHP:1,2011-11-02T14:48:00Z,30.0600,-84.2910,1.117,1111122 
COMPS,ioos:station:USF.COMPS:SHP:1,2011-11-02T14:54:00Z,30.0600,-84.2910,1.117,1111122 
COMPS,ioos:station:USF.COMPS:SHP:1,2011-11-02T15:00:00Z,30.0600,-84.2910,1.117,1111122 
COMPS,ioos:station:USF.COMPS:SHP:1,2011-11-02T15:06:00Z,30.0600,-84.2910,1.117,1111122 
COMPS,ioos:station:USF.COMPS:SHP:1,2011-11-02T15:12:00Z,30.0600,-84.2910,1.116,1111122 
COMPS,ioos:station:USF.COMPS:SHP:1,2011-11-02T15:18:00Z,30.0600,-84.2910,1.116,1111122 
COMPS,ioos:station:USF.COMPS:SHP:1,2011-11-02T15:24:00Z,30.0600,-84.2910,1.116,1111122 
COMPS,ioos:station:USF.COMPS:SHP:1,2011-11-02T15:30:00Z,30.0600,-84.2910,1.116,1111122 
COMPS,ioos:station:USF.COMPS:SHP:1,2011-11-02T15:36:00Z,30.0600,-84.2910,1.116,1111122 
COMPS,ioos:station:USF.COMPS:SHP:1,2011-11-02T15:42:00Z,30.0600,-84.2910,1.116,1111122 
COMPS,ioos:station:USF.COMPS:SHP:1,2011-11-02T15:48:00Z,30.0600,-84.2910,1.116,1111122 
COMPS,ioos:station:USF.COMPS:SHP:1,2011-11-02T15:54:00Z,30.0600,-84.2910,1.116,1111122 
COMPS,ioos:station:USF.COMPS:SHP:1,2011-11-02T17:00:00Z,30.0600,-84.2910,1.116,1111122 
COMPS,ioos:station:USF.COMPS:SHP:1,2011-11-02T17:06:00Z,30.0600,-84.2910,1.115,1111122 
COMPS,ioos:station:USF.COMPS:SHP:1,2011-11-02T17:12:00Z,30.0600,-84.2910,1.115,1111122 
COMPS,ioos:station:USF.COMPS:SHP:1,2011-11-02T17:18:00Z,30.0600,-84.2910,1.115,1111122 
COMPS,ioos:station:USF.COMPS:SHP:1,2011-11-02T17:24:00Z,30.0600,-84.2910,1.115,1111122 
COMPS,ioos:station:USF.COMPS:SHP:1,2011-11-02T17:30:00Z,30.0600,-84.2910,1.115,1111122 
COMPS,ioos:station:USF.COMPS:SHP:1,2011-11-02T17:36:00Z,30.0600,-84.2910,1.115,1111122 
COMPS,ioos:station:USF.COMPS:SHP:1,2011-11-02T17:42:00Z,30.0600,-84.2910,1.116,1111122 
COMPS,ioos:station:USF.COMPS:SHP:1,2011-11-02T17:48:00Z,30.0600,-84.2910,1.116,1111122 
COMPS,ioos:station:USF.COMPS:SHP:1,2011-11-02T17:54:00Z,30.0600,-84.2910,1.116,1111122 
COMPS,ioos:station:USF.COMPS:SHP:1,2011-11-02T18:00:00Z,30.0600,-84.2910,1.117,1111122 
COMPS,ioos:station:USF.COMPS:SHP:1,2011-11-02T18:06:00Z,30.0600,-84.2910,1.117,1111122 
COMPS,ioos:station:USF.COMPS:SHP:1,2011-11-02T18:12:00Z,30.0600,-84.2910,1.118,1111122 
COMPS,ioos:station:USF.COMPS:SHP:1,2011-11-02T18:18:00Z,30.0600,-84.2910,1.118,1111122 
COMPS,ioos:station:USF.COMPS:SHP:1,2011-11-02T18:24:00Z,30.0600,-84.2910,1.118,1111122 
COMPS,ioos:station:USF.COMPS:SHP:1,2011-11-02T18:30:00Z,30.0600,-84.2910,1.118,1111122 
COMPS,ioos:station:USF.COMPS:SHP:1,2011-11-02T18:36:00Z,30.0600,-84.2910,1.118,1111122 
COMPS,ioos:station:USF.COMPS:SHP:1,2011-11-02T18:42:00Z,30.0600,-84.2910,1.117,1111122 
COMPS,ioos:station:USF.COMPS:SHP:1,2011-11-02T18:48:00Z,30.0600,-84.2910,1.116,1111122 
COMPS,ioos:station:USF.COMPS:SHP:1,2011-11-02T18:54:00Z,30.0600,-84.2910,1.116,1111122 
COMPS,ioos:station:USF.COMPS:SHP:1,2011-11-02T19:00:00Z,30.0600,-84.2910,1.115,1111122 
COMPS,ioos:station:USF.COMPS:SHP:1,2011-11-02T19:06:00Z,30.0600,-84.2910,1.116,1111122 
COMPS,ioos:station:USF.COMPS:SHP:1,2011-11-02T19:12:00Z,30.0600,-84.2910,1.116,1111122 
COMPS,ioos:station:USF.COMPS:SHP:1,2011-11-02T19:18:00Z,30.0600,-84.2910,1.117,1111122 
COMPS,ioos:station:USF.COMPS:SHP:1,2011-11-02T19:24:00Z,30.0600,-84.2910,1.118,1111122 
COMPS,ioos:station:USF.COMPS:SHP:1,2011-11-02T19:30:00Z,30.0600,-84.2910,1.119,1111122 
COMPS,ioos:station:USF.COMPS:SHP:1,2011-11-02T19:36:00Z,30.0600,-84.2910,1.121,1111122 
COMPS,ioos:station:USF.COMPS:SHP:1,2011-11-02T19:42:00Z,30.0600,-84.2910,1.122,1111122 
COMPS,ioos:station:USF.COMPS:SHP:1,2011-11-02T19:48:00Z,30.0600,-84.2910,1.123,1111122 
COMPS,ioos:station:USF.COMPS:SHP:1,2011-11-02T19:54:00Z,30.0600,-84.2910,1.123,1111122 
COMPS,ioos:station:USF.COMPS:SHP:1,2011-11-02T20:00:00Z,30.0600,-84.2910,1.124,1111122 
COMPS,ioos:station:USF.COMPS:SHP:1,2011-11-02T20:06:00Z,30.0600,-84.2910,1.124,1111122 
COMPS,ioos:station:USF.COMPS:SHP:1,2011-11-02T20:12:00Z,30.0600,-84.2910,1.125,1111122 
COMPS,ioos:station:USF.COMPS:SHP:1,2011-11-02T20:18:00Z,30.0600,-84.2910,1.126,1111122 
COMPS,ioos:station:USF.COMPS:SHP:1,2011-11-02T20:24:00Z,30.0600,-84.2910,1.126,1111122 
COMPS,ioos:station:USF.COMPS:SHP:1,2011-11-02T20:30:00Z,30.0600,-84.2910,1.125,1111122 
COMPS,ioos:station:USF.COMPS:SHP:1,2011-11-02T20:36:00Z,30.0600,-84.2910,1.125,1111122 
COMPS,ioos:station:USF.COMPS:SHP:1,2011-11-02T20:42:00Z,30.0600,-84.2910,1.125,1111122 
COMPS,ioos:station:USF.COMPS:SHP:1,2011-11-02T20:48:00Z,30.0600,-84.2910,1.125,1111122 
COMPS,ioos:station:USF.COMPS:SHP:1,2011-11-02T20:54:00Z,30.0600,-84.2910,1.125,1111122 
COMPS,ioos:station:USF.COMPS:SHP:1,2011-11-02T21:00:00Z,30.0600,-84.2910,1.124,1111122 
COMPS,ioos:station:USF.COMPS:SHP:1,2011-11-02T21:06:00Z,30.0600,-84.2910,1.125,1111122 
COMPS,ioos:station:USF.COMPS:SHP:1,2011-11-02T21:12:00Z,30.0600,-84.2910,1.125,1111122 
COMPS,ioos:station:USF.COMPS:SHP:1,2011-11-02T21:18:00Z,30.0600,-84.2910,1.124,1111122 
COMPS,ioos:station:USF.COMPS:SHP:1,2011-11-02T21:24:00Z,30.0600,-84.2910,1.123,1111122 
COMPS,ioos:station:USF.COMPS:SHP:1,2011-11-02T21:30:00Z,30.0600,-84.2910,1.123,1111122 
COMPS,ioos:station:USF.COMPS:SHP:1,2011-11-02T21:36:00Z,30.0600,-84.2910,1.123,1111122 
COMPS,ioos:station:USF.COMPS:SHP:1,2011-11-02T21:42:00Z,30.0600,-84.2910,1.124,1111122 
COMPS,ioos:station:USF.COMPS:SHP:1,2011-11-02T21:48:00Z,30.0600,-84.2910,1.124,1111122 
COMPS,ioos:station:USF.COMPS:SHP:1,2011-11-02T21:54:00Z,30.0600,-84.2910,1.123,1111122 
COMPS,ioos:station:USF.COMPS:SHP:1,2011-11-02T22:00:00Z,30.0600,-84.2910,1.123,1111122 